Concordia, KS

3:02 PM CST on December 06, 2019 (GMT -0600)
Blosser Municipal

Weather History for KCNK - October, 2019

Change the Weather History Date:

Thursday, October 31, 2019

  Actual Average Record
Temperature  
Mean Temperature 31 °F 50 °F  
Max Temperature 46 °F 61 °F 82 °F (1944)
Min Temperature 16 °F 38 °F 14 °F (1993)
Degree Days  
Heating Degree Days 34 16  
Month to date heating degree days 421 319  
Since 1 July heating degree days 424 391  
Cooling Degree Days 0 0  
Month to date cooling degree days 9 22  
Year to date cooling degree days 1657 1348  
Moisture  
Dew Point 16 °F    
Average Humidity 54    
Maximum Humidity 81    
Minimum Humidity 27    
Precipitation  
Precipitation T in 0.05 in 1.39 in (1928)
Month to date precipitation 1.24 1.92  
Year to date precipitation 32.26 25.93  
Snow  
Snow T in 0.00 in 3.50 in (1991)
Month to date snowfall 0.2 0.2  
Year to date snowfall 32.5 13.9  
Since 1 July snowfall 0.2 0.2  
Snow Depth T in    
Sea Level Pressure  
Sea Level Pressure 30.27 in    
Wind  
Wind Speed 10 mph (WSW)    
Max Wind Speed 17 mph    
Max Gust Speed 26 mph    
Visibility 10 miles    
Events      
T = Trace of Precipitation, MM = Missing Value Source: NWS Daily Summary

Daily Weather History Graph

Daily Weather History Graph

Search for Another Location

Airport or City:

Astronomy

Oct. 31, 2019 Rise Set
Actual Time 7:57 AM CDT 6:30 PM CDT
Civil Twilight 7:29 AM CDT 6:58 PM CDT
Nautical Twilight 6:57 AM CDT 7:29 PM CDT
Astronomical Twilight 6:26 AM CDT 8:01 PM CDT
Moon 11:46 AM CDT (10/31) 9:28 PM CDT (10/31)
Length of Visible Light 11h 28m
Length of Day
10h 32m
Waxing Crescent, 16% of the Moon is Illuminated
Oct 31
Waxing Crescent
Nov 4
First Quarter
Nov 12
Full
Nov 19
Last Quarter
Nov 26
New

Hourly Weather History & Observations

Time (CDT) Temp. Windchill Dew Point Humidity Pressure Visibility Wind Dir Wind Speed Gust Speed Precip Events Conditions
12:55 AM 24.1 °F 15.2 °F 19.0 °F 81% 30.33 in 10.0 mi West 8.1 mph - N/A   Clear
1:55 AM 23.0 °F 13.9 °F 17.1 °F 78% 30.32 in 10.0 mi West 8.1 mph - N/A   Clear
2:55 AM 21.0 °F 10.6 °F 16.0 °F 81% 30.33 in 10.0 mi West 9.2 mph - N/A   Clear
3:55 AM 19.9 °F 10.1 °F 14.0 °F 78% 30.31 in 10.0 mi West 8.1 mph - N/A   Clear
4:55 AM 19.0 °F 10.0 °F 12.9 °F 77% 30.32 in 10.0 mi West 6.9 mph - N/A   Clear
5:55 AM 19.0 °F - 12.0 °F 74% 30.32 in 10.0 mi North - - N/A   Clear
6:55 AM 17.1 °F 6.6 °F 12.0 °F 81% 30.32 in 10.0 mi West 8.1 mph - N/A   Clear
7:55 AM 17.1 °F 6.6 °F 10.9 °F 77% 30.32 in 10.0 mi West 8.1 mph - N/A   Clear
8:55 AM 19.0 °F 10.0 °F 10.9 °F 71% 30.33 in 10.0 mi West 6.9 mph - N/A   Clear
9:55 AM 23.0 °F 13.1 °F 15.1 °F 72% 30.33 in 10.0 mi West 9.2 mph - N/A   Clear
10:55 AM 30.0 °F 21.7 °F 18.0 °F 61% 30.32 in 10.0 mi West 9.2 mph - N/A   Clear
11:55 AM 33.1 °F 24.4 °F 19.9 °F 59% 30.32 in 10.0 mi West 11.5 mph - N/A   Clear
12:55 PM 37.9 °F 30.5 °F 19.9 °F 48% 30.30 in 10.0 mi WSW 11.5 mph - N/A   Clear
1:55 PM 39.9 °F 32.1 °F 17.1 °F 40% 30.27 in 10.0 mi West 13.8 mph 20.7 mph N/A   Clear
2:55 PM 43.0 °F 35.7 °F 16.0 °F 34% 30.25 in 10.0 mi West 15.0 mph 21.9 mph N/A   Clear
3:55 PM 45.0 °F 39.3 °F 12.9 °F 27% 30.23 in 10.0 mi WSW 11.5 mph - N/A   Clear
4:55 PM 46.0 °F 39.9 °F 16.0 °F 30% 30.21 in 10.0 mi West 13.8 mph 20.7 mph N/A   Clear
5:55 PM 45.0 °F 41.2 °F 17.1 °F 33% 30.21 in 10.0 mi West 6.9 mph - N/A   Clear
6:55 PM 39.9 °F 35.1 °F 18.0 °F 41% 30.20 in 10.0 mi SSW 6.9 mph - N/A   Clear
7:55 PM 37.0 °F 30.4 °F 17.1 °F 44% 30.20 in 10.0 mi SSW 9.2 mph - N/A   Clear
8:55 PM 36.0 °F 28.5 °F 18.0 °F 48% 30.19 in 10.0 mi SSW 10.4 mph - N/A   Clear
9:55 PM 37.9 °F 30.5 °F 18.0 °F 45% 30.18 in 10.0 mi SSW 11.5 mph - N/A   Clear
10:55 PM 37.9 °F 30.0 °F 17.1 °F 43% 30.17 in 10.0 mi SSW 12.7 mph - N/A   Clear
11:55 PM 39.0 °F 31.8 °F 16.0 °F 39% 30.16 in 10.0 mi SW 11.5 mph - N/A   Clear